CZ-8A R/B, 62980

Orbit data source: Space-Track

CZ-8A R/B, 62980 is space debris in LEO originally from a launch on Tue, 11 Feb 2025 UTC launched from the Wenchang Satellite Launch Center (WSC). Debris objects in space refer to the collection of defunct objects orbiting the Earth. Examples of debris include non-operational satellites, rocket bodies, and fragments generated from explosions, collisions, or faulty payload assembly.

Loading next visibility...
Identifier
62980, 2025-030K
Orbit
LEO
Country
Flag of CNCN / PRC
Related business
Manufacturer
CALT
Mission
Spacecraft
Bus & Motor
CZ-8A STAGE 2, Unknown motor
Mass
~2,800 kg wet, ~2,800 kg dry
Launch date (UTC)
2025-02-11 (10 months ago)
Launch vehicle
Unknown
Launch site
Wenchang Satellite Launch Center (WSC)
Object type
Payload
Rocket body
Debris
Shape & HBR
Cyl, 4.2 m
Radar Cross Section
36.967 m², Large (>1 m²)

Expand to show TLE details & history
Last TLE update: 11 hours ago

TLE from 11 hours ago
0 CZ-8A R/B
1 62980U 25030K   25343.19189618  .00000113  00000-0  95601-4 0  9995
2 62980  50.0067  28.5326 0118147  66.6884 294.6415 14.32862357 43123
Epoch: 2025-12-09T04:36Z
TLE epoch observation values (Epoch: 2025-12-09T04:36:19.829Z)
Latitude
-0.00007°
Longitude
-118.73019°
Altitude
748.273 km
Speed
7.5 km/s
True Right ascension
01h 54m 07s
True Declination
0° 00' 00"
Sunlit
Object was in full shadow at epoch
Visualization orbit readout
Latitude
Unknown
Longitude
Unknown
Altitude
Unknown
Speed
Unknown
Apparent Right ascension
Unknown
Apparent Declination
Unknown
Sunlit
N/A
Visualization observer readout
Local Sidereal Time
14:15:47
Azimuth
Unknown
Elevation
Unknown
Doppler factor
Unknown
Orbital elements
Apogee altitude
867.525 km
Perigee altitude
698.314 km
Semi-major axis
7,161.056 km
Eccentricity
0.01181
Inclination
50.0067°
RAAN
28.5326°
Arg. of periapsis
66.6884°
True anomaly
293.4034°
Mean anomaly
294.6415°
Eccentric anomaly
294.0232°
Mean motion
3.5816 °/min
Orbital period
100.51 mins
BSTAR
0.000095601
Loading maneuver chart data...
Computing Atmospheric mass density...
Loading historical data...
Loading historical data...
Loading historical data...
Loading historical data...
Loading historical data...
Loading historical data...
Loading historical data...

Documentation

Showing up to 5 results
|